Hourly Data Report for May 27, 2020

STE-ANNE-DE-BELLEVUE 1
QUEBEC
Current Station Operator: ECCC - MSC

45°25'38.000" N
73°55'45.000" W
39.00 m
702FHL8
71377
WVQ

Download Data

Hourly Data (May 2020)
Hourly Data Report for May 27, 2020
TIME
LST
Temp Definition
°C
Dew Point Definition
°C
Rel Hum Definition
%
Precip. Amount Definition
mm

Wind Dir Definition
10's deg

Wind Spd Definition
km/h
Visibility Definition
km
Stn Press Definition
kPa
Hmdx Definition


Wind Chill Definition


Weather Definition


00:00 23.3 16.5 65 0.0 22 5   101.32 28   LegendNANA
01:00 23.3 16.3 64 0.0 22 6   101.34 28   LegendNANA
02:00 22.7 16.3 67 0.0 22 8   101.35 28   LegendNANA
03:00 21.5 16.5 73 0.0 21 6   101.35 26   LegendNANA
04:00 20.1 16.4 79 0.0 17 4   101.36 25   LegendNANA
05:00 18.8 16.1 85 0.0   0   101.41     LegendNANA
06:00 22.5 17.2 72 0.0 18 2   101.45 28   LegendNANA
07:00 24.7 17.1 63 0.0 23 5   101.46 30   LegendNANA
08:00 26.7 17.7 58 0.0 23 5   101.46 32   LegendNANA
09:00 28.4 18.4 55 0.0 17 7   101.43 35   LegendNANA
10:00 29.9 19.4 53 0.0 15 7   101.40 37   LegendNANA
11:00 32.0 18.6 45 0.0 17 9   101.33 38   LegendNANA
12:00 34.3 17.1 36 0.0 24 17   101.27 40   LegendNANA
13:00 34.9 16.1 33 0.0 21 19   101.21 40   LegendNANA
14:00 35.4 16.5 33 0.0 22 18   101.13 40   LegendNANA
15:00 35.7 16.4 32 0.0 24 15   101.09 41   LegendNANA
16:00 35.6 15.3 30 0.0 24 14   101.06 40   LegendNANA
17:00 29.6 18.6 52 0.0 18 16   101.12 36   LegendNANA
18:00 30.4 18.0 48 0.0 20 12   101.09 36   LegendNANA
19:00 29.5 18.1 50 0.0 20 5   101.10 36   LegendNANA
20:00 27.6 18.6 58 0.0 22 5   101.12 34   LegendNANA
21:00 26.6 19.0 63 0.0 25 8   101.16 33   LegendNANA
22:00 26.1 18.2 62 0.0 25 8   101.17 32   LegendNANA
23:00 25.4 18.4 65 0.0 26 9   101.19 32   LegendNANA

Notes on Data Quality.

Legend

  • E = Estimated
  • M = Missing
  • NA = Not Available*
  • [empty] = Indicates an unobserved value
Date modified: